Tracking 31027 objects as of 19-Jul-2025
HD Live streaming from Space Station
objects crossing your sky now

MIMAN

Track MIMAN now!
10-day predictions
MIMAN is classified as:


NORAD ID: 52900
Int'l Code: 2022-065G
Perigee: 691.2 km
Apogee: 701.7 km
Inclination: 98.2 °
Period: 98.5 minutes
Semi major axis: 7067 km
RCS: Unknown
Launch date: June 21, 2022
Source: South Korea (SKOR)
Launch site: Naro Space Center, South Korea (NSC)

Uplink (MHz):
Downlink (MHz): 436.500
Beacon (MHz):
Mode: 2k4/4k8* FSK
Call sign:
Status: Active

Your satellite tracking list
Your tracking list is empty




NASA's NSSDC Master Catalog

Two Line Element Set (TLE):
1 52900U 22065G   25199.84860790  .00000471  00000-0  10501-3 0  9991
2 52900  98.1781 340.1122 0007448 358.6813   1.4367 14.61208224161753
Source of the keplerian elements: AFSPC